Regional Weather Roundup
Issued by NWS State College, PA

Home | Current Version | Previous Version | Graphics & Text | Print | Product List | Glossary On
Versions: 1 2 3 4 5 6 7 8 9 10 11 12 13 14 15 16 17 18 19 20 21 22 23 24 25 26 27 28 29 30 31 32 33 34 35 36 37 38 39 40 41 42 43 44 45 46 47 48 49 50
000
ASUS41 KCTP 231110
RWRCTP

REGIONAL WEATHER ROUNDUP
NATIONAL WEATHER SERVICE STATE COLLEGE PA
600 AM EST THU FEB 23 2017

Note: "fair" indicates few or no clouds below 12,000 feet with no
significant weather and/or obstructions to visibility.

* = STATION THAT DOES NOT REPORT PRECIPITATION /E.G. RAIN...SNOW...ETC/
    THUNDER OR FOG.

PAZ002>004-007>009-013>016-020>023-029>032-231200-
WESTERN PENNSYLVANIA

CITY           SKY/WX    TMP DP  RH WIND       PRES   REMARKS
ERIE           CLOUDY    58  52  80 S18G26    29.71S
MEADVILLE      CLOUDY    53  50  89 S8        29.76S
FRANKLIN*      CLOUDY    54  48  82 SW8       29.80S
NEW CASTLE     NOT AVBL
BEAVER COUNTY  NOT AVBL
BUTLER*        CLOUDY    55  48  76 SW10      29.81S
PITTSBURGH INT CLOUDY    54  53  97 S5        29.81S
PITTSBURGH     CLOUDY    54  51  90 S10       29.81S
INDIANA*       CLOUDY    54  52  94 SW6       29.84F
LATROBE        MOCLDY    52  52 100 S5        29.84R FOG
WASHINGTON CO* CLOUDY    52  52 100 CALM      29.84R
$$

PAZ004>006-010>012-017>019-024>028-033>037-041-042-045-046-049>053-231200-
CENTRAL PENNSYLVANIA

CITY           SKY/WX    TMP DP  RH WIND       PRES   REMARKS
BRADFORD       CLOUDY    51  50  96 SW10      29.78S
DUBOIS         CLOUDY    52  48  86 SW5       29.80S
CLEARFIELD       N/A    N/A N/A N/A MISG      29.81S
JOHNSTOWN      CLOUDY    52  51  97 SW8       29.83R
ALTOONA        PTCLDY    52  49  89 SW10      29.84R
STATE COLLEGE  PTCLDY    41  37  87 CALM      29.83S
WILLIAMSPORT   CLOUDY    37  35  92 CALM      29.85S
SELINSGROVE    PTCLDY    32  32 100 CALM      29.86S FOG
FT INDIANTOWN  MOCLDY    38  38 100 CALM      29.87R
CAPITAL CITY   CLOUDY    45  40  82 E3        29.87R
HARRISBURG     CLOUDY    43  41  93 E5        29.87R
YORK           CLOUDY    44  43  96 CALM      29.87R
$$

PAZ038>040-043-044-047-048-054-055-060>062-067>071-231200-
EASTERN PENNSYLVANIA

CITY           SKY/WX    TMP DP  RH WIND       PRES   REMARKS
SCRANTON       CLEAR     39  37  92 NE3       29.84R FOG
MOUNT POCONO   CLEAR     44  42  93 W5        29.84R
ALLENTOWN      CLEAR     35  32  88 W3        29.88R FOG
QUAKERTOWN*    CLOUDY    36  32  87 CALM      29.89R
READING        CLOUDY    38  38 100 CALM      29.88R FOG
LANCASTER      FOG       43  43 100 CALM      29.88R VSB 1/4
COATESVILLE    FOG       46  46 100 CALM      29.89R VSB<1/4
POTTSTOWN      FOG       43  43 100 CALM      29.90R VSB 1/4
BLUE BELL      CLOUDY    43  43 100 CALM      29.88R VSB 1/4
DOYLESTOWN     FOG       42  42 100 CALM      29.88R VSB 1/4
WILLOW GROVE   NOT AVBL
NORTH PHILA    FOG       50  49  96 S3        29.90S VSB 1/4
PHILADELPHIA   FOG       49  48  97 CALM      29.89F VSB 1/2
$$



USA.gov is the U.S. government's official web portal to all federal, state and local government web resources and services.